Tracking 25648 objects as of 16-May-2022
HD Live streaming from Space Station
objects crossing your sky now

FLOCK 3P 60

Track FLOCK 3P 60 now!
10-day predictions
FLOCK 3P 60 is classified as:


NORAD ID: 41976
Int'l Code: 2017-008AE
Perigee: 460.6 km
Apogee: 466.5 km
Inclination: 97.3 °
Period: 93.7 minutes
Semi major axis: 6834 km
RCS: Unknown
Launch date: February 15, 2017
Source: United States (US)
Launch site: SRIHARIKOTA (SRI)
aabbcc
Your satellite tracking list
Your tracking list is empty




NASA's NSSDC Master Catalog

Two Line Element Set (TLE):
1 41976U 17008AE  22135.69946989  .00039593  00000-0  11086-2 0  9993
2 41976  97.2799 203.3607 0004345 348.3700  11.7443 15.36516808291278
Source of the keplerian elements: AFSPC